Regional Weather Roundup
Issued by NWS

Home | Current Version | Previous Version | Graphics & Text | Print | Product List | Glossary On
Versions: 1 2 3 4 5 6 7 8 9 10 11 12 13 14 15 16 17 18 19 20 21 22 23 24 25 26 27 28 29 30 31 32 33 34 35 36 37 38 39 40 41 42 43 44 45 46 47 48 49 50
000
ASUS43 KLOT 240203
RWRIL

ILLINOIS REGIONAL WEATHER ROUNDUP
NATIONAL WEATHER SERVICE CHICAGO/ROMEOVILLE IL
800 PM CST FRI FEB 23 2018

NOTE: "FAIR" INDICATES FEW OR NO CLOUDS BELOW 12,000 FEET WITH NO
SIGNIFICANT WEATHER AND/OR OBSTRUCTIONS TO VISIBILITY.

* THESE STATIONS ARE NOT UNDER NWS QUALITY CONTROL. THEY ALSO MAY NOT
  REPORT WEATHER SUCH AS PRECIPITATION OR FOG.

ILZ001-002-007-009-015-016-024-240300-
NORTHWEST ILLINOIS

CITY           SKY/WX    TMP DP  RH WIND       PRES   REMARKS
MOLINE         FAIR      33  28  81 NW3       30.28R
STERLING*      FAIR      31  28  89 W5        30.28R WCI  26
SAVANNA*       FAIR      31  27  82 CALM      30.27F
$$

ILZ003-004-008-010-011-017-018-240300-
NORTH CENTRAL ILLINOIS

CITY           SKY/WX    TMP DP  RH WIND       PRES   REMARKS
ROCKFORD       CLOUDY    32  27  81 W3        30.27R
FREEPORT*      FAIR      31  27  87 CALM      30.28R
ROCHELLE*      FAIR      32  30  92 W5        30.26S WCI  27
DE KALB*       FAIR      33  31  92 NW6       30.25S WCI  27
PERU*          FAIR      33  31  92 NW5       30.27S WCI  28
$$

ILZ005-006-012>014-019>023-240300-
NORTHEAST ILLINOIS

CITY           SKY/WX    TMP DP  RH WIND       PRES   REMARKS
CHICAGO-OHARE  CLOUDY    37  32  82 W5        30.24S WCI  33
CHICAGO-MIDWAY CLOUDY    39  33  79 W7        30.25S WCI  34
AURORA         FAIR      34  31  88 W6        30.25S WCI  29
LANSING*       CLOUDY    37  35  90 W3        30.26S
JOLIET*        CLOUDY    38  36  90 CALM      30.26S
WAUKEGAN       FAIR      34  30  85 W3        30.24S
DUPAGE AIRPORT FAIR      34  32  92 SW5       30.24S WCI  30
KANKAKEE*      CLOUDY    37  34  87 W7        30.28S WCI  32
WHEELING       FAIR      38  33  82 W5        30.26S WCI  34
MORRIS*        CLOUDY    36  34  90 NW3       30.25F
ROMEOVILLE*    FAIR      36  33  90 W5        30.26S WCI  32
NORTHERLY ISL    N/A     39  31  73 W3          N/A
$$

LMZ740>746-240300-
SOUTHERN LAKE MICHIGAN

STATION/POSITION SKY/WX   TEMP    WIND        PRES    VSBY  WAVE
                          AIR SEA DIR/SP/G                  HT/PER
                          (F)     (DEG/KT/KT) (MB)    (MI)  (FT/S)
HARRISON CRIB              40     280/  7/  7   N/A
BURNHAM HARBOR             39     280/  5/ 10   N/A
CALUMET HARBOR             38     260/  4/  8 1023.8F
BURNS HARBOR               36     260/  4/  7 1025.4S
MICHIGAN CITY              35     250/  7/  8   N/A
$$

ILZ025>027-034>036-040-047-049-050-058-095>099-240300-
WEST-CENTRAL ILLINOIS

CITY           SKY/WX    TMP DP  RH WIND       PRES   REMARKS
QUINCY         CLOUDY    37  33  85 CALM      30.27F
GALESBURG*     FAIR      32  32  99 CALM      30.29R
MACOMB*        CLOUDY   N/A N/A N/A SW3       30.31R
JACKSONVILLE*  CLOUDY    37  34  91 CALM      30.29S
PITTSFIELD*    CLOUDY    38  36  92 CALM      30.30R
$$

ILZ028>032-037-038-041>044-048-051>054-059>061-240300-
CENTRAL ILLINOIS

CITY           SKY/WX    TMP DP  RH WIND       PRES   REMARKS
DECATUR        CLOUDY    38  36  92 NW6       30.27F WCI  33
PEORIA         CLOUDY    36  33  89 S5        30.29R WCI  32
LACON*         CLOUDY    37  34  90 CALM      30.27R
LINCOLN*       CLOUDY    38  37  95 CALM      30.30R
SPRINGFIELD    CLOUDY    38  35  89 N6        30.28S WCI  33
TAYLORVILLE    CLOUDY    38  37  94 NW8       30.29R WCI  33
$$

ILZ033-039-045-046-055>057-062-063-240300-
EAST-CENTRAL ILLINOIS

CITY           SKY/WX    TMP DP  RH WIND       PRES   REMARKS
CHAMPAIGN      CLOUDY    38  38 100 N7        30.27S WCI  33
DANVILLE*      CLOUDY    40  38  95 W6        30.25S
RANTOUL*       CLOUDY    40  39  97 NW5       30.28R
MATTOON        CLOUDY    42  40  92 N8        30.27S
PARIS*         CLOUDY    42  40  94 NW6       30.28S
$$

ILZ079-100>102-240300-
SOUTHWEST ILLINOIS

CITY           SKY/WX    TMP DP  RH WIND       PRES   REMARKS
ALTON          CLOUDY    41  41 100 NW8       30.26F
BELLEVILLE     LGT RAIN  46  43  89 NE5       30.20F
CAHOKIA*       LGT RAIN  45  42  89 N9        30.25F
SPARTA*        LGT RAIN  46  46 100 NE3       30.23F
$$

ILZ064>066-069>071-074>076-080>082-084>086-088>090-092>094-240300-
SOUTH-CENTRAL ILLINOIS

CITY           SKY/WX    TMP DP  RH WIND       PRES   REMARKS
CARBONDALE     CLOUDY    49  48  97 MISG      30.23F
CAIRO*         CLOUDY    52  51  95 N5        30.22F
EFFINGHAM*     DRIZZLE   46  45  96 NW5       30.28S
MARION         CLOUDY    49  48  99 N5        30.24F
MT. VERNON     MOCLDY    47  46  97 NE3       30.23F
CENTRALIA*     LGT RAIN  48  47  97 N6        30.23F
SALEM*         LGT RAIN  48  46  91 N5        30.23F
METROPOLIS*    FAIR      51  49  94 N6        30.23F
$$

ILZ067-068-072-073-078-083-087-091-240300-
SOUTHEAST ILLINOIS

CITY           SKY/WX    TMP DP  RH WIND       PRES   REMARKS
LAWRENCEVILLE  MOCLDY    50  47  89 N6        30.25F
FLORA*         DRIZZLE   50  47  90 CALM      30.25F
FAIRFIELD*     MOCLDY    49  48  98 MISG      30.23F
HARRISBURG*    MOCLDY    49  47  95 N5        30.24F
ROBINSON*      LGT RAIN  47  45  91 N5        30.26F
CARMI*         CLOUDY    49  47  95 NW5       30.24F
$$

ABBREVIATIONS USED IN REMARKS
   TC - TEMPERATURE IN CELSIUS
  WCI - WIND CHILL INDEX
   HX - HEAT INDEX
  VSB - VISIBILITY
$$





USA.gov is the U.S. government's official web portal to all federal, state and local government web resources and services.